User: anonymous   Login
Location: Unspecified
(0.0000°N, 0.0000°E)
Time: 18:55:59
(UTC+00:00)
Language:

NODES 1 - Orbit

View from above orbital plane
View from above orbital plane
View from above satellite
View from above satellite

Ground track
Ground track

The orbit data is extracted from the following two-line orbital elements,

1 41477U 98067HX  17084.90220117 +.00043933 +00000-0 +32155-3 0  9996
2 41477 051.6333 073.2481 0003787 088.4736 271.6696 15.72730603048926
Epoch (UTC): 25 March 2017 21:39:10
Eccentricity: 0.0003787
inclination: 51.6333°
perigee height: 348 km
apogee height: 353 km
right ascension of ascending node: 73.2481°
argument of perigee: 88.4736°
revolutions per day: 15.72730603
mean anomaly at epoch: 271.6696°
orbit number at epoch: 4892

The dashed part of the orbit path shows where the satellite is in the earth's shadow,  

DLR